OK1VCF-8 Weather Reports


time (UTC)temp
F
wind
direction
speed
knots
gust
knots
rain 1hr
in
rain 24hr
in
rain mn
in
humidity
%
barometer
mb
20260903121415 77 0 0.0 0.0 0.00 0.00 0.00 42 1020.5
20260903120353 78 0 0.0 0.0 0.00 0.00 0.00 41 1020.4
20260903115626 78 0 0.0 0.0 0.00 0.00 0.00 40 1020.4
20260903114854 78 0 0.0 0.0 0.00 0.00 0.00 42 1020.5
20260903114126 78 0 0.0 0.0 0.00 0.00 0.00 43 1020.6
20260903113359 78 0 0.0 0.0 0.00 0.00 0.00 41 1020.7
20260903112629 78 0 0.0 0.0 0.00 0.00 0.00 41 1020.8
20260903111903 78 0 0.0 0.0 0.00 0.00 0.00 42 1020.6
20260903111146 78 0 0.0 0.0 0.00 0.00 0.00 43 1020.9
20260903110426 76 0 0.0 0.0 0.00 0.00 0.00 43 1021.2
20260903105707 77 0 0.0 0.0 0.00 0.00 0.00 41 1021.2
20260903104950 78 0 0.0 0.0 0.00 0.00 0.00 42 1021.2
20260903104232 78 0 0.0 0.0 0.00 0.00 0.00 40 1021.4
20260903103514 78 0 0.0 0.0 0.00 0.00 0.00 42 1021.5
20260903102756 78 0 0.0 0.0 0.00 0.00 0.00 43 1021.4
20260903102037 76 0 0.0 0.0 0.00 0.00 0.00 43 1021.6
20260903101034 75 0 0.0 0.0 0.00 0.00 0.00 44 1021.7
20260903100315 75 0 0.0 0.0 0.00 0.00 0.00 45 1021.8
20260903095555 74 0 0.0 0.0 0.00 0.00 0.00 47 1021.8
20260903094838 72 0 0.0 0.0 0.00 0.00 0.00 48 1021.8
20260903094121 73 0 0.0 0.0 0.00 0.00 0.00 48 1021.8
20260903093402 72 0 0.0 0.0 0.00 0.00 0.00 48 1021.7
20260903092644 72 0 0.0 0.0 0.00 0.00 0.00 47 1021.7
20260903091925 72 0 0.0 0.0 0.00 0.00 0.00 49 1021.6
20260903091208 74 0 0.0 0.0 0.00 0.00 0.00 48 1021.8
20260903090450 73 0 0.0 0.0 0.00 0.00 0.00 49 1021.7
20260903085731 72 0 0.0 0.0 0.00 0.00 0.00 50 1021.8
20260903085013 72 0 0.0 0.0 0.00 0.00 0.00 50 1021.8
20260903084256 72 0 0.0 0.0 0.00 0.00 0.00 50 1021.8
20260903083538 73 0 0.0 0.0 0.00 0.00 0.00 56 1021.8
20260903082820 73 0 0.0 0.0 0.00 0.00 0.00 57 1021.9
20260903081818 72 0 0.0 0.0 0.00 0.00 0.00 61 1021.8
20260903081059 70 0 0.0 0.0 0.00 0.00 0.00 62 1022.0
20260903080341 70 0 0.0 0.0 0.00 0.00 0.00 62 1022.1
20260903074202 66 0 0.0 0.0 0.00 0.00 0.00 66 1022.0
20260903073444 66 0 0.0 0.0 0.00 0.00 0.00 68 1022.0
20260903072726 66 0 0.0 0.0 0.00 0.00 0.00 69 1022.2
20260903072003 66 0 0.0 0.0 0.00 0.00 0.00 70 1022.2
20260903071238 66 0 0.0 0.0 0.00 0.00 0.00 70 1022.2
20260903070514 65 0 0.0 0.0 0.00 0.00 0.00 71 1022.1
20260903065751 64 0 0.0 0.0 0.00 0.00 0.00 73 1022.3
20260903065026 64 0 0.0 0.0 0.00 0.00 0.00 74 1022.2
20260903064303 64 0 0.0 0.0 0.00 0.00 0.00 75 1022.2
20260903063539 64 0 0.0 0.0 0.00 0.00 0.00 76 1022.2
20260903062526 62 0 0.0 0.0 0.00 0.00 0.00 80 1022.2
20260903060328 60 0 0.0 0.0 0.00 0.00 0.00 80 1022.2
20260903055606 62 0 0.0 0.0 0.00 0.00 0.00 79 1022.1
20260903054844 62 0 0.0 0.0 0.00 0.00 0.00 79 1022.0
20260903054127 62 0 0.0 0.0 0.00 0.00 0.00 78 1022.0
20260903053406 62 0 0.0 0.0 0.00 0.00 0.00 80 1022.0
20260903052648 62 0 0.0 0.0 0.00 0.00 0.00 81 1021.8
20260903051931 60 0 0.0 0.0 0.00 0.00 0.00 84 1021.8
20260903051214 59 0 0.0 0.0 0.00 0.00 0.00 86 1021.8
20260903050457 58 0 0.0 0.0 0.00 0.00 0.00 86 1021.7
20260903045738 58 0 0.0 0.0 0.00 0.00 0.00 86 1021.8
20260903045022 58 0 0.0 0.0 0.00 0.00 0.00 86 1021.8
20260903044304 59 0 0.0 0.0 0.00 0.00 0.00 86 1021.6
20260903043302 59 0 0.0 0.0 0.00 0.00 0.00 86 1021.6
20260903042543 59 0 0.0 0.0 0.00 0.00 0.00 86 1021.6
20260903041825 59 0 0.0 0.0 0.00 0.00 0.00 86 1021.6
20260903041107 59 0 0.0 0.0 0.00 0.00 0.00 86 1021.6
20260903040349 59 0 0.0 0.0 0.00 0.00 0.00 87 1021.6
20260903035631 58 0 0.0 0.0 0.00 0.00 0.00 88 1021.6
20260903034913 58 0 0.0 0.0 0.00 0.00 0.00 86 1021.6
20260903034156 60 0 0.0 0.0 0.00 0.00 0.00 86 1021.6
20260903033439 59 0 0.0 0.0 0.00 0.00 0.00 86 1021.6
20260903032722 60 0 0.0 0.0 0.00 0.00 0.00 86 1021.6
20260903032005 60 0 0.0 0.0 0.00 0.00 0.00 85 1021.6
20260903031247 60 0 0.0 0.0 0.00 0.00 0.00 86 1021.7
20260903030529 59 0 0.0 0.0 0.00 0.00 0.00 87 1021.7
20260903025811 59 0 0.0 0.0 0.00 0.00 0.00 87 1021.7
20260903025053 59 0 0.0 0.0 0.00 0.00 0.00 86 1021.5
20260903024053 59 0 0.0 0.0 0.00 0.00 0.00 88 1021.6
20260903021911 58 0 0.0 0.0 0.00 0.00 0.00 90 1021.4
20260903021154 58 0 0.0 0.0 0.00 0.00 0.00 90 1021.4
20260903020436 58 0 0.0 0.0 0.00 0.00 0.00 90 1021.4
20260903015720 57 0 0.0 0.0 0.00 0.00 0.00 90 1021.4
20260903015003 57 0 0.0 0.0 0.00 0.00 0.00 90 1021.6
20260903014246 57 0 0.0 0.0 0.00 0.00 0.00 90 1021.4
20260903013531 58 0 0.0 0.0 0.00 0.00 0.00 90 1021.5
20260903012814 58 0 0.0 0.0 0.00 0.00 0.00 90 1021.4
20260903012058 58 0 0.0 0.0 0.00 0.00 0.00 90 1021.6
20260903011340 57 0 0.0 0.0 0.00 0.00 0.00 90 1021.8
20260903010617 57 0 0.0 0.0 0.00 0.00 0.00 90 1021.6
20260903005855 56 0 0.0 0.0 0.00 0.00 0.00 90 1021.7
20260903004842 57 0 0.0 0.0 0.00 0.00 0.00 88 1021.6
20260903004112 57 0 0.0 0.0 0.00 0.00 0.00 88 1021.6
20260903003343 58 0 0.0 0.0 0.00 0.00 0.00 88 1021.6
20260903002616 58 0 0.0 0.0 0.00 0.00 0.00 86 1021.4
20260903001845 58 0 0.0 0.0 0.00 0.00 0.00 85 1021.5
20260903001113 59 0 0.0 0.0 0.00 0.00 0.00 85 1021.6
20260903000341 59 0 0.0 0.0 0.00 0.00 0.00 85 1021.4
20260902235612 59 0 0.0 0.0 0.00 0.00 0.00 85 1021.6
20260902234840 59 0 0.0 0.0 0.00 0.00 0.00 85 1021.4
20260902234107 59 0 0.0 0.0 0.00 0.00 0.00 84 1021.5
20260902233334 60 0 0.0 0.0 0.00 0.00 0.00 84 1021.4
20260902232602 60 0 0.0 0.0 0.00 0.00 0.00 82 1021.4
20260902231841 60 0 0.0 0.0 0.00 0.00 0.00 82 1021.4
20260902231124 60 0 0.0 0.0 0.00 0.00 0.00 82 1021.5
20260902230407 60 0 0.0 0.0 0.00 0.00 0.00 82 1021.4
20260902225407 60 0 0.0 0.0 0.00 0.00 0.00 81 1021.5
20260902224650 60 0 0.0 0.0 0.00 0.00 0.00 81 1021.4
20260902223931 60 0 0.0 0.0 0.00 0.00 0.00 80 1021.4
20260902223216 60 0 0.0 0.0 0.00 0.00 0.00 82 1021.5
20260902222458 60 0 0.0 0.0 0.00 0.00 0.00 81 1021.5
20260902220318 60 0 0.0 0.0 0.00 0.00 0.00 80 1021.4
20260902215600 60 0 0.0 0.0 0.00 0.00 0.00 80 1021.4
20260902214843 60 0 0.0 0.0 0.00 0.00 0.00 79 1021.4
20260902214127 60 0 0.0 0.0 0.00 0.00 0.00 79 1021.4
20260902213410 62 0 0.0 0.0 0.00 0.00 0.00 78 1021.6
20260902212653 62 0 0.0 0.0 0.00 0.00 0.00 78 1021.4
20260902211935 62 0 0.0 0.0 0.00 0.00 0.00 76 1021.4
20260902211218 62 0 0.0 0.0 0.00 0.00 0.00 76 1021.4
20260902210216 62 0 0.0 0.0 0.00 0.00 0.00 76 1021.4
20260902205458 64 0 0.0 0.0 0.00 0.00 0.00 74 1021.4
20260902204741 64 0 0.0 0.0 0.00 0.00 0.00 74 1021.4
20260902204024 64 0 0.0 0.0 0.00 0.00 0.00 72 1021.4
20260902203306 65 0 0.0 0.0 0.00 0.00 0.00 70 1021.4
20260902202549 64 0 0.0 0.0 0.00 0.00 0.00 69 1021.2
20260902201832 66 0 0.0 0.0 0.00 0.00 0.00 66 1021.2
20260902201114 66 0 0.0 0.0 0.00 0.00 0.00 66 1021.1
20260902200356 66 0 0.0 0.0 0.00 0.00 0.00 66 1021.0
20260902194213 66 0 0.0 0.0 0.00 0.00 0.00 64 1021.0
20260902193455 66 0 0.0 0.0 0.00 0.00 0.00 63 1021.0
20260902192739 66 0 0.0 0.0 0.00 0.00 0.00 63 1021.0
20260902192021 66 0 0.0 0.0 0.00 0.00 0.00 64 1020.9
20260902191019 66 0 0.0 0.0 0.00 0.00 0.00 63 1021.0
20260902190302 66 0 0.0 0.0 0.00 0.00 0.00 62 1021.0
20260902185542 66 0 0.0 0.0 0.00 0.00 0.00 62 1021.0
20260902184826 67 0 0.0 0.0 0.00 0.00 0.00 62 1021.0
20260902184107 68 0 0.0 0.0 0.00 0.00 0.00 60 1020.8
20260902183350 68 0 0.0 0.0 0.00 0.00 0.00 58 1020.8
20260902182633 70 0 0.0 0.0 0.00 0.00 0.00 56 1020.7
20260902181914 70 0 0.0 0.0 0.00 0.00 0.00 56 1020.4
20260902181157 70 0 0.0 0.0 0.00 0.00 0.00 56 1020.2
20260902180437 70 0 0.0 0.0 0.00 0.00 0.00 55 1020.1
20260902175720 70 0 0.0 0.0 0.00 0.00 0.00 54 1020.0
20260902175003 70 0 0.0 0.0 0.00 0.00 0.00 54 1020.0
20260902174244 70 0 0.0 0.0 0.00 0.00 0.00 53 1019.9
20260902173524 70 0 0.0 0.0 0.00 0.00 0.00 52 1020.0
20260902172806 72 0 0.0 0.0 0.00 0.00 0.00 50 1019.9
20260902171804 73 0 0.0 0.0 0.00 0.00 0.00 48 1019.8
20260902171045 73 0 0.0 0.0 0.00 0.00 0.00 48 1019.8
20260902170325 73 0 0.0 0.0 0.00 0.00 0.00 48 1020.0
20260902165605 74 0 0.0 0.0 0.00 0.00 0.00 48 1020.0
20260902164847 74 0 0.0 0.0 0.00 0.00 0.00 46 1020.0
20260902164130 74 0 0.0 0.0 0.00 0.00 0.00 46 1020.0
20260902163412 75 0 0.0 0.0 0.00 0.00 0.00 44 1020.0
20260902162653 78 0 0.0 0.0 0.00 0.00 0.00 42 1020.0
20260902161934 84 0 0.0 0.0 0.00 0.00 0.00 36 1020.0
20260902161215 88 0 0.0 0.0 0.00 0.00 0.00 32 1020.0
20260902160457 89 0 0.0 0.0 0.00 0.00 0.00 32 1019.9
20260902154315 86 0 0.0 0.0 0.00 0.00 0.00 34 1020.1
20260902153556 80 0 0.0 0.0 0.00 0.00 0.00 41 1020.2
20260902152553 82 0 0.0 0.0 0.00 0.00 0.00 37 1020.2
20260902151836 86 0 0.0 0.0 0.00 0.00 0.00 34 1020.3
20260902151116 80 0 0.0 0.0 0.00 0.00 0.00 38 1020.4
20260902150359 78 0 0.0 0.0 0.00 0.00 0.00 40 1020.4
20260902145639 78 0 0.0 0.0 0.00 0.00 0.00 40 1020.6
20260902144919 78 0 0.0 0.0 0.00 0.00 0.00 40 1020.5
20260902144201 78 0 0.0 0.0 0.00 0.00 0.00 41 1020.6
20260902143442 78 0 0.0 0.0 0.00 0.00 0.00 40 1020.6
20260902142723 78 0 0.0 0.0 0.00 0.00 0.00 40 1020.6
20260902142003 78 0 0.0 0.0 0.00 0.00 0.00 40 1020.8
20260902141243 80 0 0.0 0.0 0.00 0.00 0.00 40 1020.8
20260902140524 80 0 0.0 0.0 0.00 0.00 0.00 38 1020.7
20260902135806 81 0 0.0 0.0 0.00 0.00 0.00 37 1020.9
20260902135047 83 0 0.0 0.0 0.00 0.00 0.00 35 1020.8
20260902134329 83 0 0.0 0.0 0.00 0.00 0.00 36 1021.0
20260902133325 80 0 0.0 0.0 0.00 0.00 0.00 39 1021.0
20260902132605 82 0 0.0 0.0 0.00 0.00 0.00 38 1021.0
20260902131845 82 0 0.0 0.0 0.00 0.00 0.00 39 1021.3
20260902131124 82 0 0.0 0.0 0.00 0.00 0.00 38 1021.4
20260902130358 83 0 0.0 0.0 0.00 0.00 0.00 38 1021.4
20260902125629 82 0 0.0 0.0 0.00 0.00 0.00 36 1021.4
20260902124851 82 0 0.0 0.0 0.00 0.00 0.00 38 1021.4
20260902124119 80 0 0.0 0.0 0.00 0.00 0.00 37 1021.4
20260902123342 80 0 0.0 0.0 0.00 0.00 0.00 38 1021.4
20260902122607 80 0 0.0 0.0 0.00 0.00 0.00 40 1021.5